DELTA 1 DEB, 12274

Orbit data source: Space-Track

DELTA 1 DEB, 12274 is space debris in SSO originally from a launch on Thu, 29 Jul 1976 UTC launched from the Air Force Western Test Range (AFWTR). Debris objects in space refer to the collection of defunct objects orbiting the Earth. Examples of debris include non-operational satellites, rocket bodies, and fragments generated from explosions, collisions, or faulty payload assembly.

Loading next visibility...
Identifier
12274, 1976-077DF
Orbit
SSO
Country
Flag of USUS
Related business
Manufacturer
Unknown
Mission
Spacecraft
Bus & Motor
Unknown
Mass
Unknown
Launch date (UTC)
1976-07-29 (50 years ago)
Launch vehicle
Unknown
Launch site
Air Force Western Test Range (AFWTR)
Object type
Payload
Rocket body
Debris
Shape & HBR
Unknown shape, 0.1 m
Radar Cross Section
Medium (>0.1 m² and <1 m²)

Expand to show TLE details & history
Last TLE update: 17 hours ago

TLE from 17 hours ago
0 DELTA 1 DEB
1 12274U 76077DF  26255.86901660 -.00000030  00000-0  13956-3 0  9990
2 12274 102.3994 218.4511 0105246 221.3757 164.4204 12.22301307 34653
Epoch: 2026-09-12T20:51Z
TLE epoch observation values (Epoch: 2026-09-12T20:51:23.034Z)
Latitude
25.49263°
Longitude
-92.25515°
Altitude
1,666.048 km
Speed
7.007 km/s
True Right ascension
14h 09m 51s
True Declination
25° 22' 28"
Sunlit
Object was in daylight at epoch
Visualization orbit readout
Latitude
Unknown
Longitude
Unknown
Altitude
Unknown
Speed
Unknown
Apparent Right ascension
Unknown
Apparent Declination
Unknown
Sunlit
N/A
Visualization observer readout
Local Sidereal Time
05:59:13
Azimuth
Unknown
Elevation
Unknown
Doppler factor
Unknown
Orbital elements
Apogee altitude
1,663.913 km
Perigee altitude
1,496.397 km
Semi-major axis
7,958.292 km
Eccentricity
0.01052
Inclination
102.3994°
RAAN
218.4511°
Arg. of periapsis
221.3757°
True anomaly
164.74025°
Mean anomaly
164.4204°
Eccentric anomaly
164.58073°
Mean motion
3.05713 °/min
Orbital period
117.76 mins
BSTAR
0.00013956
Loading maneuver chart data...
Computing Atmospheric mass density...
Loading historical data...
Loading historical data...
Loading historical data...
Loading historical data...
Loading historical data...
Loading historical data...
Loading historical data...

Documentation

Showing up to 5 results
|